Weather History for Columbia, SC

Change the Weather History Date:

Tuesday, January 14, 2014

  Actual Average Record
Temperature  
Mean Temperature 49 °F 44 °F  
Max Temperature 61 °F 56 °F 81 °F (2013)
Min Temperature 37 °F 33 °F 10 °F (1912)
Degree Days  
Heating Degree Days 16 20  
Month to date heating degree days 324 293  
Since 1 July heating degree days 1196 1303  
Cooling Degree Days 0 0  
Month to date cooling degree days 0 0  
Year to date cooling degree days 0 0  
Growing Degree Days 1 (Base 50)    
Moisture  
Dew Point 50 °F    
Average Humidity 76    
Maximum Humidity 100    
Minimum Humidity 51    
Precipitation  
Precipitation 0.11 in 0.12 in 1.55 in (1995)
Month to date precipitation 3.18 1.59  
Year to date precipitation 3.18 1.59  
Sea Level Pressure  
Sea Level Pressure 29.87 in    
Wind  
Wind Speed 4 mph (West)    
Max Wind Speed 17 mph    
Max Gust Speed 23 mph    
Visibility 7 miles    
Events Rain    
T = Trace of Precipitation, MM = Missing Value Source: NWS Daily Summary

Daily Weather History Graph

Daily Weather History Graph

Search for Another Location

Airport:

Trip Planner

Search our weather history database for the weather conditions in past years. The results will help you decide how hot, cold, wet, or windy it might be!

Date:

Astronomy

Jan. 14, 2014 Rise Set
Actual Time 7:29 AM EST 5:37 PM EST
Civil Twilight 7:02 AM EST 6:04 PM EST
Nautical Twilight 6:31 AM EST 6:35 PM EST
Astronomical Twilight 6:01 AM EST 7:05 PM EST
Moon 4:40 PM EST (1/14) 6:04 AM EST (1/14)
Length of Visible Light 11h 02m
Length of Day
10h 07m
Waxing Gibbous, 98% of the Moon is Illuminated
Jan 14
Waxing Gibbous
Jan 15
Full
Jan 24
Last Quarter
Jan 30
New
Feb 6
First Quarter

Hourly Weather History & Observations

Time (EST) Temp. Dew Point Humidity Pressure Visibility Wind Dir Wind Speed Gust Speed Precip Events Conditions
12:56 AM 52.0 °F 51.1 °F 97% 29.91 in 10.0 mi WSW 3.5 mph - 0.01 in   Mostly Cloudy
1:39 AM 53.6 °F 51.8 °F 94% 29.88 in 10.0 mi NNE 3.5 mph - 0.00 in   Mostly Cloudy
1:46 AM 51.8 °F 51.8 °F 100% 29.88 in 8.0 mi Calm Calm - 0.00 in   Mostly Cloudy
1:56 AM 53.1 °F 51.1 °F 93% 29.88 in 8.0 mi Calm Calm - 0.00 in   Mostly Cloudy
2:56 AM 53.1 °F 52.0 °F 96% 29.86 in 8.0 mi Calm Calm - N/A   Overcast
3:56 AM 53.1 °F 51.1 °F 93% 29.84 in 9.0 mi Calm Calm - N/A   Overcast
4:56 AM 53.1 °F 52.0 °F 96% 29.82 in 6.0 mi NNW 3.5 mph - N/A   Overcast
5:32 AM 53.6 °F 51.8 °F 94% 29.82 in 6.0 mi Calm Calm - 0.00 in Rain Light Rain
5:56 AM 52.0 °F 51.1 °F 97% 29.82 in 6.0 mi Calm Calm - 0.00 in Rain Light Rain
6:25 AM 51.8 °F 51.8 °F 100% 29.80 in 2.5 mi Calm Calm - 0.00 in Rain Light Rain
6:34 AM 51.8 °F 51.8 °F 100% 29.81 in 3.0 mi Calm Calm - 0.00 in Rain Light Rain
6:56 AM 52.0 °F 51.1 °F 97% 29.83 in 4.0 mi Calm Calm - 0.00 in Rain Light Rain
7:42 AM 51.8 °F 51.8 °F 100% 29.82 in 4.0 mi Calm Calm - 0.00 in Rain Light Rain
7:56 AM 52.0 °F 51.1 °F 97% 29.82 in 3.0 mi Calm Calm - 0.00 in   Overcast
8:04 AM 53.6 °F 51.8 °F 94% 29.82 in 2.0 mi Calm Calm - N/A   Overcast
8:20 AM 53.6 °F 51.8 °F 94% 29.82 in 5.0 mi SW 3.5 mph - N/A   Overcast
8:40 AM 53.6 °F 53.6 °F 100% 29.82 in 1.5 mi WSW 3.5 mph - 0.00 in Rain Light Rain
8:56 AM 54.0 °F 53.1 °F 97% 29.83 in 3.0 mi WSW 5.8 mph - 0.00 in Rain Light Rain
8:58 AM 53.6 °F 53.6 °F 100% 29.82 in 1.0 mi West 4.6 mph - 0.00 in Rain Rain
9:08 AM 53.6 °F 53.6 °F 100% 29.82 in 2.0 mi WSW 3.5 mph - 0.03 in Rain Light Rain
9:16 AM 55.4 °F 53.6 °F 94% 29.82 in 5.0 mi South 3.5 mph - 0.04 in Rain Light Rain
9:56 AM 55.0 °F 54.0 °F 96% 29.85 in 6.0 mi SW 5.8 mph - 0.04 in Rain Light Rain
10:34 AM 55.4 °F 53.6 °F 94% 29.87 in 5.0 mi WSW 6.9 mph - 0.03 in Rain Light Rain
10:46 AM 55.4 °F 53.6 °F 94% 29.89 in 6.0 mi WSW 11.5 mph - 0.03 in Rain Light Rain
10:56 AM 55.9 °F 53.1 °F 90% 29.88 in 5.0 mi West 15.0 mph - 0.05 in Rain Light Rain
11:56 AM 55.9 °F 52.0 °F 87% 29.88 in 10.0 mi West 9.2 mph - 0.01 in   Overcast
12:16 PM 55.4 °F 53.6 °F 94% 29.87 in 10.0 mi West 12.7 mph - N/A   Overcast
12:56 PM 55.9 °F 51.1 °F 84% 29.86 in 10.0 mi WNW 13.8 mph - N/A   Overcast
1:27 PM 57.2 °F 50.0 °F 77% 29.86 in 10.0 mi West 15.0 mph - N/A   Scattered Clouds
1:56 PM 60.1 °F 50.0 °F 69% 29.86 in 10.0 mi WNW 11.5 mph - N/A   Scattered Clouds
2:56 PM 60.1 °F 46.0 °F 60% 29.88 in 10.0 mi NW 10.4 mph - N/A   Partly Cloudy
3:56 PM 60.1 °F 45.0 °F 57% 29.90 in 10.0 mi West 9.2 mph - N/A   Scattered Clouds
4:56 PM 60.1 °F 42.1 °F 51% 29.91 in 10.0 mi WNW 4.6 mph - N/A   Partly Cloudy
5:56 PM 54.0 °F 44.1 °F 69% 29.93 in 10.0 mi Calm Calm - N/A   Clear
6:56 PM 50.0 °F 45.0 °F 83% 29.95 in 10.0 mi Calm Calm - N/A   Clear
7:56 PM 46.9 °F 44.1 °F 90% 29.97 in 10.0 mi Calm Calm - N/A   Clear
8:56 PM 42.1 °F 39.9 °F 92% 29.99 in 10.0 mi Calm Calm - N/A   Clear
9:56 PM 41.0 °F 39.0 °F 93% 29.99 in 10.0 mi Calm Calm - N/A   Clear
10:56 PM 42.1 °F 39.9 °F 92% 29.99 in 10.0 mi Calm Calm - N/A   Clear
11:56 PM 37.9 °F 35.1 °F 89% 29.98 in 10.0 mi Calm Calm - N/A   Clear